Year,Month,Day,Hour,Minute,Value (Times are PST for temperature in C)
2018,10,24,00,00,6.70
2018,10,24,00,01,6.70
2018,10,24,00,02,6.70
2018,10,24,00,03,6.60
2018,10,24,00,04,6.60
2018,10,24,00,05,6.60
2018,10,24,00,06,6.60
2018,10,24,00,07,6.60
2018,10,24,00,08,6.60
2018,10,24,00,09,6.50
2018,10,24,00,10,6.50
2018,10,24,00,11,6.50
2018,10,24,00,12,6.40
2018,10,24,00,13,6.40
2018,10,24,00,14,6.40
2018,10,24,00,15,6.40
2018,10,24,00,16,6.40
2018,10,24,00,17,6.40
2018,10,24,00,18,6.30
2018,10,24,00,19,6.30
2018,10,24,00,20,6.30
2018,10,24,00,21,6.30
2018,10,24,00,22,6.30
2018,10,24,00,23,6.30
2018,10,24,00,24,6.30
2018,10,24,00,25,6.30
2018,10,24,00,26,6.30
2018,10,24,00,27,6.20
2018,10,24,00,28,6.20
2018,10,24,00,29,6.20
2018,10,24,00,30,6.20
2018,10,24,00,31,6.20
2018,10,24,00,32,6.20
2018,10,24,00,33,6.20
2018,10,24,00,34,6.20
2018,10,24,00,35,6.20
2018,10,24,00,36,6.10
2018,10,24,00,37,6.10
2018,10,24,00,38,6.10
2018,10,24,00,39,6.10
2018,10,24,00,40,6.10
2018,10,24,00,41,6.10
2018,10,24,00,42,6.10
2018,10,24,00,43,6.10
2018,10,24,00,44,6.10
2018,10,24,00,45,6.10
2018,10,24,00,46,6.10
2018,10,24,00,47,6.00
2018,10,24,00,48,6.00
2018,10,24,00,49,6.00
2018,10,24,00,50,6.00
2018,10,24,00,51,6.00
2018,10,24,00,52,6.00
2018,10,24,00,53,6.00
2018,10,24,00,54,5.90
2018,10,24,00,55,5.90
2018,10,24,00,56,5.90
2018,10,24,00,57,5.90
2018,10,24,00,58,5.90
2018,10,24,00,59,5.90
2018,10,24,01,00,5.90
2018,10,24,01,01,5.90
2018,10,24,01,02,5.80
2018,10,24,01,03,5.80
2018,10,24,01,04,5.80
2018,10,24,01,05,5.80
2018,10,24,01,06,5.80
2018,10,24,01,07,5.70
2018,10,24,01,08,5.70
2018,10,24,01,09,5.70
2018,10,24,01,10,5.70
2018,10,24,01,11,5.70
2018,10,24,01,12,5.70
2018,10,24,01,13,5.70
2018,10,24,01,14,5.70
2018,10,24,01,15,5.70
2018,10,24,01,16,5.70
2018,10,24,01,17,5.70
2018,10,24,01,18,5.70
2018,10,24,01,19,5.70
2018,10,24,01,20,5.70
2018,10,24,01,21,5.60
2018,10,24,01,22,5.60
2018,10,24,01,23,5.60
2018,10,24,01,24,5.60
2018,10,24,01,25,5.60
2018,10,24,01,26,5.60
2018,10,24,01,27,5.60
2018,10,24,01,28,5.60
2018,10,24,01,29,5.60
2018,10,24,01,30,5.60
2018,10,24,01,31,5.60
2018,10,24,01,32,5.60
2018,10,24,01,33,5.60
2018,10,24,01,34,5.60
2018,10,24,01,35,5.60
2018,10,24,01,36,5.50
2018,10,24,01,37,5.50
2018,10,24,01,38,5.50
2018,10,24,01,39,5.50
2018,10,24,01,40,5.50
2018,10,24,01,41,5.50
2018,10,24,01,42,5.40
2018,10,24,01,43,5.40
2018,10,24,01,44,5.40
2018,10,24,01,45,5.40
2018,10,24,01,46,5.40
2018,10,24,01,47,5.40
2018,10,24,01,48,5.40
2018,10,24,01,49,5.30
2018,10,24,01,50,5.30
2018,10,24,01,51,5.30
2018,10,24,01,52,5.30
2018,10,24,01,53,5.30
2018,10,24,01,54,5.30
2018,10,24,01,55,5.30
2018,10,24,01,56,5.20
2018,10,24,01,57,5.20
2018,10,24,01,58,5.20
2018,10,24,01,59,5.20
2018,10,24,02,00,5.20
2018,10,24,02,01,5.20
2018,10,24,02,02,5.20
2018,10,24,02,03,5.20
2018,10,24,02,04,5.20
2018,10,24,02,05,5.20
2018,10,24,02,06,5.20
2018,10,24,02,07,5.20
2018,10,24,02,08,5.20
2018,10,24,02,09,5.20
2018,10,24,02,10,5.20
2018,10,24,02,11,5.20
2018,10,24,02,12,5.10
2018,10,24,02,13,5.10
2018,10,24,02,14,5.10
2018,10,24,02,15,5.10
2018,10,24,02,16,5.10
2018,10,24,02,17,5.10
2018,10,24,02,18,5.10
2018,10,24,02,19,5.10
2018,10,24,02,20,5.10
2018,10,24,02,21,5.10
2018,10,24,02,22,5.10
2018,10,24,02,23,5.10
2018,10,24,02,24,5.10
2018,10,24,02,25,5.10
2018,10,24,02,26,5.00
2018,10,24,02,27,5.00
2018,10,24,02,28,5.00
2018,10,24,02,29,5.00
2018,10,24,02,30,5.00
2018,10,24,02,31,5.00
2018,10,24,02,32,5.00
2018,10,24,02,33,5.00
2018,10,24,02,34,5.00
2018,10,24,02,35,4.90
2018,10,24,02,36,4.90
2018,10,24,02,37,4.90
2018,10,24,02,38,4.90
2018,10,24,02,39,4.90
2018,10,24,02,40,4.90
2018,10,24,02,41,4.90
2018,10,24,02,42,4.90
2018,10,24,02,43,4.90
2018,10,24,02,44,4.90
2018,10,24,02,45,4.90
2018,10,24,02,46,4.90
2018,10,24,02,47,4.90
2018,10,24,02,48,4.90
2018,10,24,02,49,4.90
2018,10,24,02,50,4.90
2018,10,24,02,51,4.90
2018,10,24,02,52,4.90
2018,10,24,02,53,4.90
2018,10,24,02,54,4.90
2018,10,24,02,55,4.90
2018,10,24,02,56,4.90
2018,10,24,02,57,4.80
2018,10,24,02,58,4.80
2018,10,24,02,59,4.80
2018,10,24,03,00,4.80
2018,10,24,03,01,4.80
2018,10,24,03,02,4.80
2018,10,24,03,03,4.80
2018,10,24,03,04,4.80
2018,10,24,03,05,4.70
2018,10,24,03,06,4.70
2018,10,24,03,07,4.70
2018,10,24,03,08,4.70
2018,10,24,03,09,4.80
2018,10,24,03,10,4.70
2018,10,24,03,11,4.70
2018,10,24,03,12,4.70
2018,10,24,03,13,4.70
2018,10,24,03,14,4.70
2018,10,24,03,15,4.70
2018,10,24,03,16,4.70
2018,10,24,03,17,4.70
2018,10,24,03,18,4.70
2018,10,24,03,19,4.70
2018,10,24,03,20,4.70
2018,10,24,03,21,4.70
2018,10,24,03,22,4.70
2018,10,24,03,23,4.70
2018,10,24,03,24,4.70
2018,10,24,03,25,4.70
2018,10,24,03,26,4.70
2018,10,24,03,27,4.70
2018,10,24,03,28,4.70
2018,10,24,03,29,4.70
2018,10,24,03,30,4.70
2018,10,24,03,31,4.70
2018,10,24,03,32,4.70
2018,10,24,03,33,4.70
2018,10,24,03,34,4.70
2018,10,24,03,35,4.70
2018,10,24,03,36,4.70
2018,10,24,03,37,4.70
2018,10,24,03,38,4.70
2018,10,24,03,39,4.70
2018,10,24,03,40,4.70
2018,10,24,03,41,4.70
2018,10,24,03,42,4.70
2018,10,24,03,43,4.70
2018,10,24,03,44,4.70
2018,10,24,03,45,4.70
2018,10,24,03,46,4.70
2018,10,24,03,47,4.70
2018,10,24,03,48,4.70
2018,10,24,03,49,4.70
2018,10,24,03,50,4.70
2018,10,24,03,51,4.70
2018,10,24,03,52,4.70
2018,10,24,03,53,4.70
2018,10,24,03,54,4.70
2018,10,24,03,55,4.70
2018,10,24,03,56,4.70
2018,10,24,03,57,4.60
2018,10,24,03,58,4.60
2018,10,24,03,59,4.60
2018,10,24,04,00,4.60
2018,10,24,04,01,4.60
2018,10,24,04,02,4.60
2018,10,24,04,03,4.60
2018,10,24,04,04,4.60
2018,10,24,04,05,4.60
2018,10,24,04,06,4.60
2018,10,24,04,07,4.60
2018,10,24,04,08,4.60
2018,10,24,04,09,4.60
2018,10,24,04,10,4.60
2018,10,24,04,11,4.60
2018,10,24,04,12,4.60
2018,10,24,04,13,4.60
2018,10,24,04,14,4.60
2018,10,24,04,15,4.60
2018,10,24,04,16,4.60
2018,10,24,04,17,4.60
2018,10,24,04,18,4.60
2018,10,24,04,19,4.60
2018,10,24,04,20,4.60
2018,10,24,04,21,4.60
2018,10,24,04,22,4.60
2018,10,24,04,23,4.60
2018,10,24,04,24,4.60
2018,10,24,04,25,4.60
2018,10,24,04,26,4.60
2018,10,24,04,27,4.60
2018,10,24,04,28,4.60
2018,10,24,04,29,4.60
2018,10,24,04,30,4.60
2018,10,24,04,31,4.60
2018,10,24,04,32,4.60
2018,10,24,04,33,4.60
2018,10,24,04,34,4.60
2018,10,24,04,35,4.60
2018,10,24,04,36,4.60
2018,10,24,04,37,4.50
2018,10,24,04,38,4.60
2018,10,24,04,39,4.60
2018,10,24,04,40,4.60
2018,10,24,04,41,4.60
2018,10,24,04,42,4.60
2018,10,24,04,43,4.60
2018,10,24,04,44,4.60
2018,10,24,04,45,4.60
2018,10,24,04,46,4.60
2018,10,24,04,47,4.60
2018,10,24,04,48,4.60
2018,10,24,04,49,4.60
2018,10,24,04,50,4.60
2018,10,24,04,51,4.60
2018,10,24,04,52,4.60
2018,10,24,04,53,4.60
2018,10,24,04,54,4.60
2018,10,24,04,55,4.60
2018,10,24,04,56,4.60
2018,10,24,04,57,4.60
2018,10,24,04,58,4.50
2018,10,24,04,59,4.50
2018,10,24,05,00,4.50
2018,10,24,05,01,4.60
2018,10,24,05,02,4.60
2018,10,24,05,03,4.60
2018,10,24,05,04,4.60
2018,10,24,05,05,4.60
2018,10,24,05,06,4.50
2018,10,24,05,07,4.60
2018,10,24,05,08,4.50
2018,10,24,05,09,4.50
2018,10,24,05,10,4.60
2018,10,24,05,11,4.50
2018,10,24,05,12,4.50
2018,10,24,05,13,4.50
2018,10,24,05,14,4.50
2018,10,24,05,15,4.50
2018,10,24,05,16,4.50
2018,10,24,05,17,4.50
2018,10,24,05,18,4.50
2018,10,24,05,19,4.50
2018,10,24,05,20,4.50
2018,10,24,05,21,4.50
2018,10,24,05,22,4.50
2018,10,24,05,23,4.50
2018,10,24,05,24,4.50
2018,10,24,05,25,4.50
2018,10,24,05,26,4.50
2018,10,24,05,27,4.50
2018,10,24,05,28,4.50
2018,10,24,05,29,4.50
2018,10,24,05,30,4.50
2018,10,24,05,31,4.50
2018,10,24,05,32,4.50
2018,10,24,05,33,4.50
2018,10,24,05,34,4.50
2018,10,24,05,35,4.50
2018,10,24,05,36,4.40
2018,10,24,05,37,4.40
2018,10,24,05,38,4.40
2018,10,24,05,39,4.40
2018,10,24,05,40,4.40
2018,10,24,05,41,4.40
2018,10,24,05,42,4.40
2018,10,24,05,43,4.40
2018,10,24,05,44,4.40
2018,10,24,05,45,4.40
2018,10,24,05,46,4.40
2018,10,24,05,47,4.40
2018,10,24,05,48,4.40
2018,10,24,05,49,4.40
2018,10,24,05,50,4.40
2018,10,24,05,51,4.40
2018,10,24,05,52,4.40
2018,10,24,05,53,4.40
2018,10,24,05,54,4.40
2018,10,24,05,55,4.40
2018,10,24,05,56,4.40
2018,10,24,05,57,4.40
2018,10,24,05,58,4.40
2018,10,24,05,59,4.40
2018,10,24,06,00,4.40
2018,10,24,06,01,4.40
2018,10,24,06,02,4.40
2018,10,24,06,03,4.40
2018,10,24,06,04,4.40
2018,10,24,06,05,4.30
2018,10,24,06,06,4.30
2018,10,24,06,07,4.30
2018,10,24,06,08,4.30
2018,10,24,06,09,4.30
2018,10,24,06,10,4.30
2018,10,24,06,11,4.40
2018,10,24,06,12,4.40
2018,10,24,06,13,4.30
2018,10,24,06,14,4.40
2018,10,24,06,15,4.40
2018,10,24,06,16,4.40
2018,10,24,06,17,4.40
2018,10,24,06,18,4.40
2018,10,24,06,19,4.30
2018,10,24,06,20,4.30
2018,10,24,06,21,4.30
2018,10,24,06,22,4.40
2018,10,24,06,23,4.40
2018,10,24,06,24,4.40
2018,10,24,06,25,4.30
2018,10,24,06,26,4.30
2018,10,24,06,27,4.30
2018,10,24,06,28,4.30
2018,10,24,06,29,4.30
2018,10,24,06,30,4.30
2018,10,24,06,31,4.30
2018,10,24,06,32,4.30
2018,10,24,06,33,4.30
2018,10,24,06,34,4.30
2018,10,24,06,35,4.30
2018,10,24,06,36,4.30
2018,10,24,06,37,4.30
2018,10,24,06,38,4.30
2018,10,24,06,39,4.30
2018,10,24,06,40,4.30
2018,10,24,06,41,4.30
2018,10,24,06,42,4.30
2018,10,24,06,43,4.30
2018,10,24,06,44,4.30
2018,10,24,06,45,4.30
2018,10,24,06,46,4.30
2018,10,24,06,47,4.30
2018,10,24,06,48,4.20
2018,10,24,06,49,4.30
2018,10,24,06,50,4.30
2018,10,24,06,51,4.30
2018,10,24,06,52,4.30
2018,10,24,06,53,4.30
2018,10,24,06,54,4.20
2018,10,24,06,55,4.20
2018,10,24,06,56,4.20
2018,10,24,06,57,4.20
2018,10,24,06,58,4.20
2018,10,24,06,59,4.20
2018,10,24,07,00,4.20
2018,10,24,07,01,4.20
2018,10,24,07,02,4.20
2018,10,24,07,03,4.20
2018,10,24,07,04,4.20
2018,10,24,07,05,4.20
2018,10,24,07,06,4.20
2018,10,24,07,07,4.20
2018,10,24,07,08,4.20
2018,10,24,07,09,4.20
2018,10,24,07,10,4.20
2018,10,24,07,11,4.20
2018,10,24,07,12,4.20
2018,10,24,07,13,4.20
2018,10,24,07,14,4.10
2018,10,24,07,15,4.10
2018,10,24,07,16,4.10
2018,10,24,07,17,4.10
2018,10,24,07,18,4.20
2018,10,24,07,19,4.10
2018,10,24,07,20,4.10
2018,10,24,07,21,4.10
2018,10,24,07,22,4.10
2018,10,24,07,23,4.10
2018,10,24,07,24,4.10
2018,10,24,07,25,4.10
2018,10,24,07,26,4.10
2018,10,24,07,27,4.10
2018,10,24,07,28,4.10
2018,10,24,07,29,4.10
2018,10,24,07,30,4.10
2018,10,24,07,31,4.10
2018,10,24,07,32,4.10
2018,10,24,07,33,4.10
2018,10,24,07,34,4.10
2018,10,24,07,35,4.10
2018,10,24,07,36,4.10
2018,10,24,07,37,4.10
2018,10,24,07,38,4.10
2018,10,24,07,39,4.10
2018,10,24,07,40,4.10
2018,10,24,07,41,4.10
2018,10,24,07,42,4.10
2018,10,24,07,43,4.10
2018,10,24,07,44,4.10
2018,10,24,07,45,4.10
2018,10,24,07,46,4.10
2018,10,24,07,47,4.10
2018,10,24,07,48,4.10
2018,10,24,07,49,4.10
2018,10,24,07,50,4.10
2018,10,24,07,51,4.10
2018,10,24,07,52,4.10
2018,10,24,07,53,4.10
2018,10,24,07,54,4.00
2018,10,24,07,55,4.00
2018,10,24,07,56,4.00
2018,10,24,07,57,4.00
2018,10,24,07,58,4.00
2018,10,24,07,59,4.00
2018,10,24,08,00,4.00
2018,10,24,08,01,4.00
2018,10,24,08,02,3.90
2018,10,24,08,03,3.90
2018,10,24,08,04,3.90
2018,10,24,08,05,3.90
2018,10,24,08,06,3.90
2018,10,24,08,07,3.90
2018,10,24,08,08,3.90
2018,10,24,08,09,3.90
2018,10,24,08,10,3.90
2018,10,24,08,11,3.90
2018,10,24,08,12,3.90
2018,10,24,08,13,3.90
2018,10,24,08,14,3.90
2018,10,24,08,15,3.90
2018,10,24,08,16,3.90
2018,10,24,08,17,3.90
2018,10,24,08,18,3.90
2018,10,24,08,19,3.90
2018,10,24,08,20,3.90
2018,10,24,08,21,3.90
2018,10,24,08,22,3.90
2018,10,24,08,23,3.90
2018,10,24,08,24,3.90
2018,10,24,08,25,4.00
2018,10,24,08,26,4.00
2018,10,24,08,27,4.00
2018,10,24,08,28,4.00
2018,10,24,08,29,4.00
2018,10,24,08,30,4.00
2018,10,24,08,31,4.00
2018,10,24,08,32,4.00
2018,10,24,08,33,4.10
2018,10,24,08,34,4.10
2018,10,24,08,35,4.10
2018,10,24,08,36,4.10
2018,10,24,08,37,4.10
2018,10,24,08,38,4.10
2018,10,24,08,39,4.10
2018,10,24,08,40,4.10
2018,10,24,08,41,4.10
2018,10,24,08,42,4.10
2018,10,24,08,43,4.10
2018,10,24,08,44,4.20
2018,10,24,08,45,4.20
2018,10,24,08,46,4.20
2018,10,24,08,47,4.20
2018,10,24,08,48,4.20
2018,10,24,08,49,4.30
2018,10,24,08,50,4.30
2018,10,24,08,51,4.30
2018,10,24,08,52,4.40
2018,10,24,08,53,4.40
2018,10,24,08,54,4.40
2018,10,24,08,55,4.40
2018,10,24,08,56,4.40
2018,10,24,08,57,4.40
2018,10,24,08,58,4.40
2018,10,24,08,59,4.50
2018,10,24,09,00,4.50
2018,10,24,09,01,4.50
2018,10,24,09,02,4.50
2018,10,24,09,03,4.50
2018,10,24,09,04,4.60
2018,10,24,09,05,4.60
2018,10,24,09,06,4.60
2018,10,24,09,07,4.60
2018,10,24,09,08,4.70
2018,10,24,09,09,4.70
2018,10,24,09,10,4.70
2018,10,24,09,11,4.70
2018,10,24,09,12,4.70
2018,10,24,09,13,4.70
2018,10,24,09,14,4.80
2018,10,24,09,15,4.80
2018,10,24,09,16,4.80
2018,10,24,09,17,4.80
2018,10,24,09,18,4.90
2018,10,24,09,19,4.90
2018,10,24,09,20,4.90
2018,10,24,09,21,4.90
2018,10,24,09,22,5.00
2018,10,24,09,23,5.00
2018,10,24,09,24,5.00
2018,10,24,09,25,5.10
2018,10,24,09,26,5.20
2018,10,24,09,27,5.20
2018,10,24,09,28,5.30
2018,10,24,09,29,5.40
2018,10,24,09,30,5.50
2018,10,24,09,31,5.60
2018,10,24,09,32,5.70
2018,10,24,09,33,5.70
2018,10,24,09,34,5.80
2018,10,24,09,35,5.80
2018,10,24,09,36,5.90
2018,10,24,09,37,5.90
2018,10,24,09,38,6.00
2018,10,24,09,39,6.00
2018,10,24,09,40,6.00
2018,10,24,09,41,6.10
2018,10,24,09,42,6.10
2018,10,24,09,43,6.20
2018,10,24,09,44,6.30
2018,10,24,09,45,6.30
2018,10,24,09,46,6.40
2018,10,24,09,47,6.40
2018,10,24,09,48,6.50
2018,10,24,09,49,6.60
2018,10,24,09,50,6.60
2018,10,24,09,51,6.70
2018,10,24,09,52,6.70
2018,10,24,09,53,6.70
2018,10,24,09,54,6.80
2018,10,24,09,55,6.80
2018,10,24,09,56,6.90
2018,10,24,09,57,6.90
2018,10,24,09,58,7.00
2018,10,24,09,59,7.00
2018,10,24,10,00,7.10
2018,10,24,10,01,7.20
2018,10,24,10,02,7.30
2018,10,24,10,03,7.30
2018,10,24,10,04,7.40
2018,10,24,10,05,7.50
2018,10,24,10,06,7.50
2018,10,24,10,07,7.60
2018,10,24,10,08,7.70
2018,10,24,10,09,7.70
2018,10,24,10,10,7.80
2018,10,24,10,11,7.80
2018,10,24,10,12,7.90
2018,10,24,10,13,7.90
2018,10,24,10,14,8.00
2018,10,24,10,15,8.10
2018,10,24,10,16,8.10
2018,10,24,10,17,8.20
2018,10,24,10,18,8.20
2018,10,24,10,19,8.20
2018,10,24,10,20,8.20
2018,10,24,10,21,8.20
2018,10,24,10,22,8.20
2018,10,24,10,23,8.20
2018,10,24,10,24,8.20
2018,10,24,10,25,8.30
2018,10,24,10,26,8.30
2018,10,24,10,27,8.30
2018,10,24,10,28,8.30
2018,10,24,10,29,8.30
2018,10,24,10,30,8.30
2018,10,24,10,31,8.30
2018,10,24,10,32,8.40
2018,10,24,10,33,8.40
2018,10,24,10,34,8.40
2018,10,24,10,35,8.40
2018,10,24,10,36,8.50
2018,10,24,10,37,8.50
2018,10,24,10,38,8.60
2018,10,24,10,39,8.60
2018,10,24,10,40,8.60
2018,10,24,10,41,8.60
2018,10,24,10,42,8.60
2018,10,24,10,43,8.60
2018,10,24,10,44,8.60
2018,10,24,10,45,8.70
2018,10,24,10,46,8.70
2018,10,24,10,47,8.70
2018,10,24,10,48,8.70
2018,10,24,10,49,8.70
2018,10,24,10,50,8.70
2018,10,24,10,51,8.70
2018,10,24,10,52,8.70
2018,10,24,10,53,8.80
2018,10,24,10,54,8.80
2018,10,24,10,55,8.80
2018,10,24,10,56,8.80
2018,10,24,10,57,8.80
2018,10,24,10,58,8.80
2018,10,24,10,59,8.80
2018,10,24,11,00,8.80
2018,10,24,11,01,8.80
2018,10,24,11,02,8.80
2018,10,24,11,03,8.80
2018,10,24,11,04,8.90
2018,10,24,11,05,8.90
2018,10,24,11,06,8.90
2018,10,24,11,07,8.90
2018,10,24,11,08,9.00
2018,10,24,11,09,9.00
2018,10,24,11,10,9.00
2018,10,24,11,11,9.00
2018,10,24,11,12,9.00
2018,10,24,11,13,9.10
2018,10,24,11,14,9.10
2018,10,24,11,15,9.10
2018,10,24,11,16,9.10
2018,10,24,11,17,9.10
2018,10,24,11,18,9.20
2018,10,24,11,19,9.20
2018,10,24,11,20,9.20
2018,10,24,11,21,9.20
2018,10,24,11,22,9.20
2018,10,24,11,23,9.30
2018,10,24,11,24,9.30
2018,10,24,11,25,9.30
2018,10,24,11,26,9.30
2018,10,24,11,27,9.30
2018,10,24,11,28,9.30
2018,10,24,11,29,9.30
2018,10,24,11,30,9.30
2018,10,24,11,31,9.30
2018,10,24,11,32,9.30
2018,10,24,11,33,9.30
2018,10,24,11,34,9.30
2018,10,24,11,35,9.30
2018,10,24,11,36,9.30
2018,10,24,11,37,9.30
2018,10,24,11,38,9.40
2018,10,24,11,39,9.50
2018,10,24,11,40,9.50
2018,10,24,11,41,9.60
2018,10,24,11,42,9.60
2018,10,24,11,43,9.60
2018,10,24,11,44,9.70
2018,10,24,11,45,9.70
2018,10,24,11,46,9.70
2018,10,24,11,47,9.80
2018,10,24,11,48,9.80
2018,10,24,11,49,9.80
2018,10,24,11,50,9.80
2018,10,24,11,51,9.90
2018,10,24,11,52,9.90
2018,10,24,11,53,9.90
2018,10,24,11,54,10.00
2018,10,24,11,55,10.00
2018,10,24,11,56,10.10
2018,10,24,11,57,10.20
2018,10,24,11,58,10.20
2018,10,24,11,59,10.30
2018,10,24,12,00,10.30
2018,10,24,12,01,10.30
2018,10,24,12,02,10.30
2018,10,24,12,03,10.30
2018,10,24,12,04,10.30
2018,10,24,12,05,10.30
2018,10,24,12,06,10.40
2018,10,24,12,07,10.40
2018,10,24,12,08,10.50
2018,10,24,12,09,10.50
2018,10,24,12,10,10.50
2018,10,24,12,11,10.60
2018,10,24,12,12,10.70
2018,10,24,12,13,10.70
2018,10,24,12,14,10.70
2018,10,24,12,15,10.70
2018,10,24,12,16,10.80
2018,10,24,12,17,10.80
2018,10,24,12,18,10.80
2018,10,24,12,19,10.80
2018,10,24,12,20,10.90
2018,10,24,12,21,10.90
2018,10,24,12,22,11.00
2018,10,24,12,23,11.00
2018,10,24,12,24,11.00
2018,10,24,12,25,11.10
2018,10,24,12,26,11.10
2018,10,24,12,27,11.10
2018,10,24,12,28,11.10
2018,10,24,12,29,11.10
2018,10,24,12,30,11.20
2018,10,24,12,31,11.20
2018,10,24,12,32,11.30
2018,10,24,12,33,11.30
2018,10,24,12,34,11.30
2018,10,24,12,35,11.30
2018,10,24,12,36,11.30
2018,10,24,12,37,11.30
2018,10,24,12,38,11.40
2018,10,24,12,39,11.40
2018,10,24,12,40,11.40
2018,10,24,12,41,11.40
2018,10,24,12,42,11.30
2018,10,24,12,43,11.30
2018,10,24,12,44,11.20
2018,10,24,12,45,11.20
2018,10,24,12,46,11.20
2018,10,24,12,47,11.20
2018,10,24,12,48,11.20
2018,10,24,12,49,11.20
2018,10,24,12,50,11.20
2018,10,24,12,51,11.20
2018,10,24,12,52,11.20
2018,10,24,12,53,11.20
2018,10,24,12,54,11.20
2018,10,24,12,55,11.20
2018,10,24,12,56,11.20
2018,10,24,12,57,11.20
2018,10,24,12,58,11.10
2018,10,24,12,59,11.10
2018,10,24,13,00,11.10
2018,10,24,13,01,11.10
2018,10,24,13,02,11.20
2018,10,24,13,03,11.20
2018,10,24,13,04,11.20
2018,10,24,13,05,11.20
2018,10,24,13,06,11.20
2018,10,24,13,07,11.20
2018,10,24,13,08,11.20
2018,10,24,13,09,11.20
2018,10,24,13,10,11.30
2018,10,24,13,11,11.30
2018,10,24,13,12,11.30
2018,10,24,13,13,11.40
2018,10,24,13,14,11.40
2018,10,24,13,15,11.50
2018,10,24,13,16,11.50
2018,10,24,13,17,11.60
2018,10,24,13,18,11.60
2018,10,24,13,19,11.60
2018,10,24,13,20,11.60
2018,10,24,13,21,11.60
2018,10,24,13,22,11.60
2018,10,24,13,23,11.60
2018,10,24,13,24,11.60
2018,10,24,13,25,11.60
2018,10,24,13,26,11.50
2018,10,24,13,27,11.50
2018,10,24,13,28,11.50
2018,10,24,13,29,11.50
2018,10,24,13,30,11.50
2018,10,24,13,31,11.50
2018,10,24,13,32,11.50
2018,10,24,13,33,11.50
2018,10,24,13,34,11.50
2018,10,24,13,35,11.50
2018,10,24,13,36,11.50
2018,10,24,13,37,11.50
2018,10,24,13,38,11.50
2018,10,24,13,39,11.60
2018,10,24,13,40,11.60
2018,10,24,13,41,11.60
2018,10,24,13,42,11.60
2018,10,24,13,43,11.60
2018,10,24,13,44,11.60
2018,10,24,13,45,11.70
2018,10,24,13,46,11.70
2018,10,24,13,47,11.70
2018,10,24,13,48,11.70
2018,10,24,13,49,11.70
2018,10,24,13,50,11.70
2018,10,24,13,51,11.80
2018,10,24,13,52,11.80
2018,10,24,13,53,11.80
2018,10,24,13,54,11.80
2018,10,24,13,55,11.80
2018,10,24,13,56,11.80
2018,10,24,13,57,11.90
2018,10,24,13,58,11.90
2018,10,24,13,59,11.90
2018,10,24,14,00,11.90
2018,10,24,14,01,11.90
2018,10,24,14,02,12.00
2018,10,24,14,03,12.00
2018,10,24,14,04,12.00
2018,10,24,14,05,12.10
2018,10,24,14,06,12.10
2018,10,24,14,07,12.10
2018,10,24,14,08,12.20
2018,10,24,14,09,12.20
2018,10,24,14,10,12.20
2018,10,24,14,11,12.20
2018,10,24,14,12,12.20
2018,10,24,14,13,12.30
2018,10,24,14,14,12.30
2018,10,24,14,15,12.30
2018,10,24,14,16,12.30
2018,10,24,14,17,12.40
2018,10,24,14,18,12.40
2018,10,24,14,19,12.40
2018,10,24,14,20,12.40
2018,10,24,14,21,12.40
2018,10,24,14,22,12.50
2018,10,24,14,23,12.50
2018,10,24,14,24,12.50
2018,10,24,14,25,12.50
2018,10,24,14,26,12.50
2018,10,24,14,27,12.60
2018,10,24,14,28,12.60
2018,10,24,14,29,12.60
2018,10,24,14,30,12.70
2018,10,24,14,31,12.70
2018,10,24,14,32,12.80
2018,10,24,14,33,12.80
2018,10,24,14,34,12.80
2018,10,24,14,35,12.90
2018,10,24,14,36,12.90
2018,10,24,14,37,12.90
2018,10,24,14,38,12.90
2018,10,24,14,39,12.90
2018,10,24,14,40,13.00
2018,10,24,14,41,13.00
2018,10,24,14,42,12.90
2018,10,24,14,43,13.00
2018,10,24,14,44,13.00
2018,10,24,14,45,13.00
2018,10,24,14,46,13.00
2018,10,24,14,47,13.00
2018,10,24,14,48,13.00
2018,10,24,14,49,13.00
2018,10,24,14,50,13.00
2018,10,24,14,51,13.10
2018,10,24,14,52,13.10
2018,10,24,14,53,13.10
2018,10,24,14,54,13.10
2018,10,24,14,55,13.10
2018,10,24,14,56,13.10
2018,10,24,14,57,13.10
2018,10,24,14,58,13.00
2018,10,24,14,59,13.00
2018,10,24,15,00,13.00
2018,10,24,15,01,13.00
2018,10,24,15,02,13.00
2018,10,24,15,03,13.00
2018,10,24,15,04,13.00
2018,10,24,15,05,13.00
2018,10,24,15,06,13.00
2018,10,24,15,07,13.00
2018,10,24,15,08,13.00
2018,10,24,15,09,13.00
2018,10,24,15,10,13.00
2018,10,24,15,11,13.00
2018,10,24,15,12,12.90
2018,10,24,15,13,12.90
2018,10,24,15,14,12.90
2018,10,24,15,15,12.90
2018,10,24,15,16,12.90
2018,10,24,15,17,12.80
2018,10,24,15,18,12.80
2018,10,24,15,19,12.80
2018,10,24,15,20,12.80
2018,10,24,15,21,12.70
2018,10,24,15,22,12.70
2018,10,24,15,23,12.70
2018,10,24,15,24,12.60
2018,10,24,15,25,12.60
2018,10,24,15,26,12.60
2018,10,24,15,27,12.60
2018,10,24,15,28,12.60
2018,10,24,15,29,12.50
2018,10,24,15,30,12.50
2018,10,24,15,31,12.50
2018,10,24,15,32,12.50
2018,10,24,15,33,12.40
2018,10,24,15,34,12.40
2018,10,24,15,35,12.40
2018,10,24,15,36,12.40
2018,10,24,15,37,12.40
2018,10,24,15,38,12.30
2018,10,24,15,39,12.30
2018,10,24,15,40,12.30
2018,10,24,15,41,12.30
2018,10,24,15,42,12.30
2018,10,24,15,43,12.30
2018,10,24,15,44,12.30
2018,10,24,15,45,12.30
2018,10,24,15,46,12.30
2018,10,24,15,47,12.30
2018,10,24,15,48,12.30
2018,10,24,15,49,12.30
2018,10,24,15,50,12.30
2018,10,24,15,51,12.30
2018,10,24,15,52,12.30
2018,10,24,15,53,12.30
2018,10,24,15,54,12.30
2018,10,24,15,55,12.30
2018,10,24,15,56,12.30
2018,10,24,15,57,12.30
2018,10,24,15,58,12.30
2018,10,24,15,59,12.30
2018,10,24,16,00,12.40
2018,10,24,16,01,12.40
2018,10,24,16,02,12.40
2018,10,24,16,03,12.40
2018,10,24,16,04,12.30
2018,10,24,16,05,12.30
2018,10,24,16,06,12.30
2018,10,24,16,07,12.30
2018,10,24,16,08,12.30
2018,10,24,16,09,12.30
2018,10,24,16,10,12.30
2018,10,24,16,11,12.20
2018,10,24,16,12,12.20
2018,10,24,16,13,12.20
2018,10,24,16,14,12.20
2018,10,24,16,15,12.20
2018,10,24,16,16,12.20
2018,10,24,16,17,12.20
2018,10,24,16,18,12.20
2018,10,24,16,19,12.20
2018,10,24,16,20,12.10
2018,10,24,16,21,12.10
2018,10,24,16,22,12.10
2018,10,24,16,23,12.10
2018,10,24,16,24,12.10
2018,10,24,16,25,12.10
2018,10,24,16,26,12.10
2018,10,24,16,27,12.10
2018,10,24,16,28,12.10
2018,10,24,16,29,12.10
2018,10,24,16,30,12.10
2018,10,24,16,31,12.10
2018,10,24,16,32,12.10
2018,10,24,16,33,12.10
2018,10,24,16,34,12.10
2018,10,24,16,35,12.10
2018,10,24,16,36,12.00
2018,10,24,16,37,12.00
2018,10,24,16,38,12.00
2018,10,24,16,39,12.00
2018,10,24,16,40,12.00
2018,10,24,16,41,12.00
2018,10,24,16,42,12.00
2018,10,24,16,43,12.00
2018,10,24,16,44,12.00
2018,10,24,16,45,11.90
2018,10,24,16,46,12.00
2018,10,24,16,47,12.00
2018,10,24,16,48,11.90
2018,10,24,16,49,11.90
2018,10,24,16,50,11.90
2018,10,24,16,51,11.90
2018,10,24,16,52,11.90
2018,10,24,16,53,11.90
2018,10,24,16,54,11.90
2018,10,24,16,55,11.90
2018,10,24,16,56,11.90
2018,10,24,16,57,11.90
2018,10,24,16,58,11.90
2018,10,24,16,59,11.90
2018,10,24,17,00,11.90
2018,10,24,17,01,11.80
2018,10,24,17,02,11.80
2018,10,24,17,03,11.80
2018,10,24,17,04,11.80
2018,10,24,17,05,11.80
2018,10,24,17,06,11.80
2018,10,24,17,07,11.80
2018,10,24,17,08,11.80
2018,10,24,17,09,11.80
2018,10,24,17,10,11.80
2018,10,24,17,11,11.80
2018,10,24,17,12,11.80
2018,10,24,17,13,11.80
2018,10,24,17,14,11.80
2018,10,24,17,15,11.80
2018,10,24,17,16,11.80
2018,10,24,17,17,11.80
2018,10,24,17,18,11.70
2018,10,24,17,19,11.70
2018,10,24,17,20,11.70
2018,10,24,17,21,11.70
2018,10,24,17,22,11.70
2018,10,24,17,23,11.70
2018,10,24,17,24,11.70
2018,10,24,17,25,11.70
2018,10,24,17,26,11.70
2018,10,24,17,27,11.70
2018,10,24,17,28,11.70
2018,10,24,17,29,11.70
2018,10,24,17,30,11.70
2018,10,24,17,31,11.60
2018,10,24,17,32,11.60
2018,10,24,17,33,11.60
2018,10,24,17,34,11.60
2018,10,24,17,35,11.60
2018,10,24,17,36,11.60
2018,10,24,17,37,11.60
2018,10,24,17,38,11.60
2018,10,24,17,39,11.60
2018,10,24,17,40,11.50
2018,10,24,17,41,11.50
2018,10,24,17,42,11.50
2018,10,24,17,43,11.50
2018,10,24,17,44,11.50
2018,10,24,17,45,11.50
2018,10,24,17,46,11.50
2018,10,24,17,47,11.50
2018,10,24,17,48,11.50
2018,10,24,17,49,11.50
2018,10,24,17,50,11.50